Weather History for Charleston, SC

Change the Weather History Date:

Tuesday, March 6, 2012

  Actual Average Record
Temperature  
Mean Temperature 48 °F 56 °F  
Max Temperature 59 °F 67 °F 85 °F (1976)
Min Temperature 36 °F 45 °F 21 °F (1960)
Degree Days  
Heating Degree Days 17 10  
Month to date heating degree days 45 62  
Since 1 July heating degree days 1307 1698  
Cooling Degree Days 0 1  
Month to date cooling degree days 7 4  
Year to date cooling degree days 24 11  
Moisture  
Dew Point 31 °F    
Average Humidity 56    
Maximum Humidity 82    
Minimum Humidity 30    
Precipitation  
Precipitation 0.00 in 0.12 in 2.96 in (1983)
Month to date precipitation 3.97 0.69  
Year to date precipitation 6.88 7.36  
Snow  
Snow 0.00 in 0.00 in - ()
Month to date snowfall 0.0 0.0  
Since 1 July snowfall 0.0 0.5  
Snow Depth 0.00 in    
Sea Level Pressure  
Sea Level Pressure 30.58 in    
Wind  
Wind Speed 10 mph (ENE)    
Max Wind Speed 18 mph    
Max Gust Speed 23 mph    
Visibility 10 miles    
Events      
T = Trace of Precipitation, MM = Missing Value Source: NWS Daily Summary

Daily Weather History Graph

Daily Weather History Graph

Search for Another Location

Airport:

Trip Planner

Search our weather history database for the weather conditions in past years. The results will help you decide how hot, cold, wet, or windy it might be!

Date:

Astronomy

Mar. 06, 2012 Rise Set
Actual Time 6:41 AM EST 6:21 PM EST
Civil Twilight 6:16 AM EST 6:46 PM EST
Nautical Twilight 5:48 AM EST 7:14 PM EST
Astronomical Twilight 5:19 AM EST 7:43 PM EST
Moon 4:49 PM EST (3/6) 5:11 AM EST (3/6)
Length of Visible Light 12h 29m
Length of Day
11h 40m
Waxing Gibbous, 96% of the Moon is Illuminated
Mar 6
Waxing Gibbous
Mar 8
Full
Mar 14
Last Quarter
Mar 22
New
Mar 30
First Quarter

Hourly Weather History & Observations

Time (EST) Temp. Windchill Dew Point Humidity Pressure Visibility Wind Dir Wind Speed Gust Speed Precip Events Conditions
12:56 AM 42.1 °F 37.7 °F 25.0 °F 51% 30.49 in 10.0 mi NNE 6.9 mph - N/A   Clear
1:56 AM 42.1 °F 36.6 °F 24.1 °F 49% 30.50 in 10.0 mi NE 9.2 mph - N/A   Clear
2:56 AM 42.1 °F 34.2 °F 21.9 °F 45% 30.51 in 10.0 mi NE 16.1 mph - N/A   Clear
3:56 AM 41.0 °F 34.7 °F 21.9 °F 47% 30.52 in 10.0 mi NE 10.4 mph - N/A   Clear
4:56 AM 37.9 °F 33.5 °F 21.9 °F 53% 30.55 in 10.0 mi NE 5.8 mph - N/A   Clear
5:56 AM 37.0 °F 30.4 °F 23.0 °F 57% 30.56 in 10.0 mi NE 9.2 mph - N/A   Clear
6:56 AM 37.9 °F 30.0 °F 23.0 °F 55% 30.57 in 10.0 mi NE 12.7 mph - N/A   Clear
7:56 AM 43.0 °F 37.2 °F 25.0 °F 49% 30.59 in 10.0 mi NE 10.4 mph - N/A   Clear
8:56 AM 48.0 °F - 25.0 °F 41% 30.61 in 10.0 mi ENE 12.7 mph - N/A   Clear
9:56 AM 51.1 °F - 21.9 °F 32% 30.63 in 10.0 mi ENE 12.7 mph - N/A   Clear
10:56 AM 54.0 °F - 25.0 °F 33% 30.64 in 10.0 mi ESE 8.1 mph - N/A   Clear
11:56 AM 57.0 °F - 30.0 °F 36% 30.63 in 10.0 mi ESE 11.5 mph 19.6 mph N/A   Clear
12:56 PM 57.0 °F - 30.0 °F 36% 30.63 in 10.0 mi East 10.4 mph 19.6 mph N/A   Clear
1:56 PM 57.0 °F - 32.0 °F 39% 30.61 in 10.0 mi ESE 10.4 mph - N/A   Clear
2:56 PM 59.0 °F - 33.1 °F 38% 30.60 in 10.0 mi ESE 13.8 mph - N/A   Clear
3:56 PM 57.0 °F - 37.9 °F 49% 30.60 in 10.0 mi ESE 13.8 mph 20.7 mph N/A   Partly Cloudy
4:56 PM 55.0 °F - 39.9 °F 57% 30.61 in 10.0 mi East 12.7 mph - N/A   Scattered Clouds
5:56 PM 53.1 °F - 41.0 °F 64% 30.60 in 10.0 mi East 11.5 mph - N/A   Partly Cloudy
6:56 PM 51.1 °F - 41.0 °F 68% 30.59 in 10.0 mi East 9.2 mph - N/A   Partly Cloudy
7:56 PM 48.9 °F - 41.0 °F 74% 30.59 in 10.0 mi NE 5.8 mph - N/A   Clear
8:56 PM 48.0 °F - 41.0 °F 77% 30.60 in 10.0 mi NNE 6.9 mph - N/A   Partly Cloudy
9:56 PM 46.9 °F - 41.0 °F 80% 30.61 in 10.0 mi NNE 8.1 mph - N/A   Partly Cloudy
10:56 PM 46.0 °F 41.4 °F 41.0 °F 83% 30.60 in 10.0 mi NNE 9.2 mph - N/A   Partly Cloudy
11:56 PM 45.0 °F 40.1 °F 41.0 °F 86% 30.59 in 10.0 mi NNE 9.2 mph - N/A   Scattered Clouds